CW6668 Weather Reports


time (UTC)temp
F
wind
direction
speed
knots
gust
knots
rain 1hr
in
rain 24hr
in
rain mn
in
humidity
%
barometer
mb
20260507154508 56 334 0.0 3.5 0.00 0.01 0.01 52 1012.3
20260507153005 56 346 0.9 6.1 0.00 0.01 0.01 58 1012.4
20260507151501 55 263 1.7 5.2 0.00 0.05 0.01 58 1012.4
20260507150103 55 336 0.0 2.6 0.00 0.05 0.01 62 1012.6
20260507144558 55 96 0.0 5.2 0.00 0.05 0.01 65 1012.7
20260507143058 54 25 1.7 6.1 0.00 0.05 0.01 63 1013.0
20260507141556 54 292 1.7 3.5 0.00 0.12 0.01 67 1013.0
20260507140106 53 292 0.9 7.0 0.00 0.12 0.01 65 1013.3
20260507134552 53 21 0.0 3.5 0.00 0.12 0.01 65 1013.2
20260507133051 53 319 1.7 7.8 0.00 0.12 0.01 68 1013.3
20260507131549 53 265 1.7 5.2 0.00 0.18 0.01 72 1013.2
20260507130047 53 292 0.0 1.7 0.00 0.18 0.01 73 1013.2
20260507124545 53 292 0.0 1.7 0.00 0.18 0.01 69 1013.5
20260507123043 52 292 0.9 2.6 0.00 0.18 0.01 71 1013.2
20260507121541 52 292 0.0 2.6 0.00 0.25 0.01 73 1013.2
20260507120038 52 342 0.9 2.6 0.00 0.25 0.01 75 1013.1
20260507114537 52 306 0.9 3.5 0.00 0.25 0.01 72 1012.9
20260507113040 52 288 0.0 4.3 0.00 0.25 0.01 72 1012.9
20260507111531 52 292 0.0 2.6 0.00 0.25 0.01 75 1012.9
20260507110028 52 292 0.0 3.5 0.00 0.25 0.01 78 1012.8
20260507104527 52 286 0.0 0.9 0.00 0.25 0.01 82 1012.6
20260507103025 52 286 0.0 1.7 0.00 0.25 0.01 81 1012.3
20260507101536 52 286 0.0 0.9 0.00 0.25 0.01 82 1012.2
20260507100030 53 286 0.0 2.6 0.00 0.25 0.01 82 1012.1
20260507094521 53 286 0.0 1.7 0.00 0.25 0.01 81 1012.1
20260507093025 53 286 0.0 2.6 0.00 0.25 0.01 82 1011.9
20260507091538 53 286 0.0 2.6 0.00 0.25 0.01 84 1011.8
20260507090015 53 286 0.0 1.7 0.00 0.25 0.01 84 1011.8
20260507084515 53 286 0.0 2.6 0.00 0.25 0.01 84 1011.8
20260507083017 53 309 2.6 7.0 0.00 0.25 0.01 86 1011.8
20260507081511 53 309 1.7 4.3 0.00 0.25 0.01 87 1011.6
20260507080011 53 317 0.9 2.6 0.00 0.25 0.01 89 1011.1
20260507074512 53 317 0.0 1.7 0.01 0.25 0.01 90 1011.1
20260507073010 53 317 0.0 1.7 0.01 0.25 0.01 89 1010.9
20260507071509 53 317 0.9 4.3 0.01 0.25 0.01 89 1011.1
20260507070140 54 281 0.9 4.3 0.01 0.25 0.01 88 1010.9
20260507064509 54 5 0.9 4.3 0.00 0.24 0.00 87 1011.1
20260507063005 54 309 1.7 6.1 0.00 0.24 0.00 87 1011.2
20260507061510 55 319 0.9 4.3 0.00 0.24 0.00 88 1011.1
20260507060100 55 273 0.9 3.5 0.00 0.24 0.00 89 1011.0
20260507054617 55 268 0.9 2.6 0.00 0.24 0.00 89 1011.1
20260507053057 55 320 1.7 5.2 0.00 0.24 0.00 89 1011.2
20260507051554 55 282 0.9 4.3 0.00 0.24 0.24 88 1011.2
20260507050053 55 282 0.0 2.6 0.00 0.24 0.24 87 1011.3
20260507044551 56 245 2.6 7.8 0.00 0.24 0.24 86 1011.4
20260507043050 57 320 1.7 5.2 0.00 0.24 0.24 84 1010.8
20260507041546 57 322 2.6 11.3 0.00 0.24 0.24 83 1011.2
20260507040048 58 329 2.6 10.4 0.00 0.24 0.24 82 1011.2
20260507034543 59 294 1.7 7.0 0.00 0.24 0.24 81 1010.7
20260507033038 59 310 1.7 7.0 0.00 0.24 0.24 81 1010.7
20260507031537 60 267 1.7 6.1 0.00 0.24 0.24 80 1010.7
20260507030040 60 286 3.5 10.4 0.00 0.24 0.24 80 1010.6
20260507024535 61 304 0.9 11.3 0.00 0.24 0.24 80 1009.9
20260507023034 61 315 1.7 7.0 0.00 0.24 0.24 81 1010.2
20260507021532 61 287 1.7 9.6 0.00 0.24 0.24 80 1010.0
20260507020033 62 290 1.7 8.7 0.00 0.24 0.24 80 1009.7
20260507014531 62 310 1.7 7.8 0.00 0.24 0.24 81 1010.0
20260507013032 63 360 1.7 7.0 0.00 0.24 0.24 83 1009.9
20260507011532 64 298 0.9 8.7 0.00 0.24 0.24 83 1009.8
20260507010030 64 284 1.7 9.6 0.00 0.24 0.24 83 1009.9
20260507004529 65 360 2.6 9.6 0.00 0.24 0.24 83 1009.8
20260507003028 66 229 1.7 9.6 0.00 0.24 0.24 84 1009.4
20260507001526 67 195 0.9 2.6 0.00 0.24 0.24 83 1009.3
20260507000028 67 195 0.9 2.6 0.00 0.24 0.24 82 1008.9
20260506234527 67 195 0.9 2.6 0.00 0.24 0.24 81 1008.7
20260506233027 68 161 0.0 3.5 0.00 0.24 0.24 81 1008.3
20260506231526 68 202 0.9 4.3 0.00 0.24 0.24 81 1008.5
20260506230024 68 144 0.0 3.5 0.00 0.24 0.24 80 1008.1
20260506224524 68 213 0.0 6.1 0.00 0.24 0.24 80 1008.2
20260506223024 68 192 1.7 7.0 0.00 0.24 0.24 79 1008.1
20260506221524 69 192 1.7 6.1 0.00 0.24 0.24 78 1008.2
20260506220029 69 153 1.7 7.0 0.00 0.24 0.24 78 1008.2
20260506214522 69 113 2.6 13.0 0.00 0.24 0.24 79 1008.2
20260506213021 69 259 1.7 8.7 0.00 0.24 0.24 78 1008.2
20260506211520 69 193 1.7 6.1 0.00 0.24 0.24 78 1007.8
20260506210021 70 178 3.5 7.0 0.00 0.24 0.24 76 1007.6
20260506204524 70 258 4.3 8.7 0.00 0.24 0.24 76 1007.4
20260506203018 70 180 3.5 14.8 0.00 0.24 0.24 76 1007.5
20260506201523 69 181 2.6 9.6 0.00 0.24 0.24 78 1007.6
20260506200024 69 132 4.3 9.6 0.00 0.24 0.24 76 1007.6
20260506194514 69 215 3.5 9.6 0.00 0.24 0.24 77 1007.7
20260506193016 69 305 4.3 11.3 0.00 0.24 0.24 76 1007.8
20260506191512 68 239 3.5 8.7 0.00 0.24 0.24 76 1007.8
20260506190012 68 180 3.5 13.0 0.00 0.24 0.24 78 1007.9
20260506184510 68 197 6.1 11.3 0.00 0.24 0.24 78 1008.1
20260506183008 66 180 3.5 10.4 0.00 0.24 0.24 80 1008.3
20260506181506 66 204 5.2 15.6 0.00 0.24 0.24 80 1008.2
20260506180006 66 184 5.2 14.8 0.00 0.24 0.24 80 1008.3
20260506174503 65 192 4.3 14.8 0.00 0.24 0.24 82 1008.5
20260506173002 65 298 3.5 15.6 0.00 0.24 0.24 84 1008.6
20260506171601 65 203 5.2 13.0 0.00 0.24 0.24 83 1008.5
20260506170100 63 283 6.1 16.5 0.00 0.24 0.24 85 1008.6
20260506164559 63 184 4.3 15.6 0.00 0.24 0.24 86 1008.6
20260506163109 62 217 7.8 13.9 0.00 0.24 0.24 88 1008.7
20260506161600 62 217 7.0 16.5 0.00 0.24 0.24 88 1008.9
20260506160056 62 134 4.3 12.2 0.00 0.24 0.24 89 1008.8